Burlington, VT

10:33 PM EDT on April 28, 2017 (GMT -0400)
Burlington International

Weather History for KBTV - December, 2012

Change the Weather History Date:

Monday, December 31, 2012

  Actual Average Record
Temperature  
Mean Temperature 22 °F 20 °F  
Max Temperature 31 °F 29 °F 56 °F (1965)
Min Temperature 13 °F 13 °F -19 °F (1963)
Degree Days  
Heating Degree Days 43 44  
Month to date heating degree days 1053 1213  
Since 1 July heating degree days 2405 2759  
Cooling Degree Days 0 0  
Month to date cooling degree days 0 0  
Year to date cooling degree days 747 491  
Moisture  
Dew Point 17 °F    
Average Humidity 78    
Maximum Humidity 84    
Minimum Humidity 72    
Precipitation  
Precipitation T in 0.07 in 0.67 in (1932)
Month to date precipitation 3.30 2.38  
Year to date precipitation 35.94 36.82  
Snow  
Snow 0.60 in 0.60 in 8.20 in (2000)
Month to date snowfall 30.7 17.9  
Since 1 July snowfall 34.5 23.3  
Snow Depth 17.00 in    
Sea Level Pressure  
Sea Level Pressure 29.91 in    
Wind  
Wind Speed 8 mph (South)    
Max Wind Speed 17 mph    
Max Gust Speed 23 mph    
Visibility 9 miles    
Events Snow    
T = Trace of Precipitation, MM = Missing Value Source: NWS Daily Summary

Daily Weather History Graph

Daily Weather History Graph

Search for Another Location

Airport or City:

Trip Planner

Search our weather history database for the weather conditions in past years. The results will help you decide how hot, cold, wet, or windy it might be!

Date:

Astronomy

Dec. 31, 2012 Rise Set
Actual Time 7:28 AM EST 4:22 PM EST
Civil Twilight 6:55 AM EST 4:56 PM EST
Nautical Twilight 6:18 AM EST 5:32 PM EST
Astronomical Twilight 5:43 AM EST 6:08 PM EST
Moon 7:59 PM EST (12/31) 9:01 AM EST (12/31)
Length of Visible Light 10h 00m
Length of Day
8h 54m
Waning Gibbous, 90% of the Moon is Illuminated
Dec 31
Waning Gibbous
Jan 4
Last Quarter
Jan 11
New
Jan 18
First Quarter
Jan 26
Full

Hourly Weather History & Observations

Time (EST) Temp. Windchill Dew Point Humidity Pressure Visibility Wind Dir Wind Speed Gust Speed Precip Events Conditions
12:54 AM 14.0 °F 6.5 °F 7.0 °F 74% 30.11 in 10.0 mi East 4.6 mph - N/A   Overcast
1:54 AM 14.0 °F - 7.0 °F 74% 30.10 in 9.0 mi Calm Calm - 0.00 in Snow Light Snow
2:54 AM 15.1 °F 9.4 °F 8.1 °F 74% 30.09 in 9.0 mi East 3.5 mph - 0.00 in Snow Light Snow
3:54 AM 15.1 °F 7.7 °F 9.0 °F 77% 30.07 in 9.0 mi ENE 4.6 mph - 0.00 in Snow Light Snow
4:54 AM 16.0 °F 10.4 °F 10.9 °F 81% 30.05 in 9.0 mi ENE 3.5 mph - 0.00 in Snow Light Snow
5:42 AM 15.8 °F 8.6 °F 10.4 °F 79% 30.02 in 6.0 mi SE 4.6 mph - 0.00 in Snow Light Snow
5:54 AM 18.0 °F 12.7 °F 14.0 °F 84% 30.04 in 7.0 mi SE 3.5 mph - 0.00 in Snow Light Snow
6:54 AM 17.1 °F - 12.0 °F 81% 30.04 in 9.0 mi Calm Calm - 0.00 in Snow Light Snow
7:54 AM 18.0 °F - 12.9 °F 81% 30.03 in 9.0 mi Calm Calm - 0.00 in Snow Light Snow
8:03 AM 17.6 °F - 12.2 °F 79% 30.00 in 9.0 mi Calm Calm - 0.00 in Snow Light Snow
8:54 AM 19.9 °F 13.4 °F 15.1 °F 81% 30.02 in 9.0 mi South 4.6 mph - 0.00 in Snow Light Snow
9:54 AM 21.9 °F 13.4 °F 15.1 °F 75% 30.01 in 9.0 mi South 6.9 mph - 0.00 in Snow Light Snow
10:54 AM 23.0 °F 11.7 °F 16.0 °F 74% 29.97 in 9.0 mi South 11.5 mph - 0.00 in Snow Light Snow
11:54 AM 24.1 °F 14.4 °F 17.1 °F 75% 29.94 in 9.0 mi South 9.2 mph - 0.00 in Snow Light Snow
12:03 PM 24.8 °F 17.9 °F 17.6 °F 74% 29.92 in 9.0 mi South 5.8 mph - 0.00 in Snow Light Snow
12:54 PM 25.0 °F 18.1 °F 19.0 °F 78% 29.90 in 10.0 mi South 5.8 mph - 0.00 in   Overcast
1:41 PM 26.6 °F 15.7 °F 21.2 °F 80% 29.85 in 10.0 mi SSW 12.7 mph - N/A   Overcast
1:54 PM 27.0 °F 17.3 °F 21.0 °F 78% 29.87 in 10.0 mi SSW 10.4 mph - N/A   Overcast
2:51 PM 28.4 °F 20.4 °F 21.2 °F 74% 29.84 in 10.0 mi SSW 8.1 mph - N/A   Overcast
2:54 PM 28.0 °F 19.3 °F 21.9 °F 78% 29.86 in 10.0 mi SSW 9.2 mph - N/A   Overcast
3:54 PM 28.0 °F 18.6 °F 21.9 °F 78% 29.83 in 10.0 mi South 10.4 mph - N/A   Mostly Cloudy
3:57 PM 28.4 °F 19.1 °F 21.2 °F 74% 29.81 in 10.0 mi South 10.4 mph - N/A   Mostly Cloudy
4:54 PM 28.0 °F 20.0 °F 21.9 °F 78% 29.82 in 10.0 mi South 8.1 mph - N/A   Mostly Cloudy
5:54 PM 27.0 °F 18.0 °F 21.0 °F 78% 29.81 in 10.0 mi South 9.2 mph - N/A   Overcast
6:54 PM 28.9 °F 18.2 °F 21.9 °F 75% 29.78 in 10.0 mi South 13.8 mph 19.6 mph N/A   Overcast
7:54 PM 30.0 °F 18.7 °F 23.0 °F 75% 29.75 in 9.0 mi South 16.1 mph 23.0 mph 0.00 in Snow Light Snow
8:54 PM 30.0 °F 20.5 °F 23.0 °F 75% 29.73 in 9.0 mi SSW 11.5 mph 20.7 mph 0.00 in Snow Light Snow
9:54 PM 30.0 °F 20.0 °F 24.1 °F 79% 29.71 in 6.0 mi SSW 12.7 mph - 0.00 in Snow Light Snow
10:54 PM 30.0 °F 19.1 °F 25.0 °F 82% 29.69 in 9.0 mi South 15.0 mph - 0.00 in   Overcast
11:43 PM 30.2 °F 19.3 °F 24.8 °F 80% 29.66 in 1.8 mi South 15.0 mph - 0.00 in Snow Light Snow
11:54 PM 30.0 °F 20.0 °F 25.0 °F 82% 29.68 in 2.0 mi South 12.7 mph - 0.00 in Snow Light Snow